FW1657 Weather Reports


time (UTC)temp
C
wind
direction
speed
KPH
gust
KPH
rain 1hr
cm
rain 24hr
cm
rain mn
cm
humidity
%
barometer
mb
20260509021548 8 273 8.0 12.9 0.00 0.00 0.00 83 1017.2
20260509020047 8 271 6.4 9.7 0.00 0.00 0.00 82 1017.3
20260509014546 8 271 8.0 12.9 0.00 0.00 0.00 81 1017.2
20260509013050 8 271 8.0 12.9 0.00 0.00 0.00 81 1017.3
20260509011541 8 270 6.4 9.7 0.00 0.00 0.00 80 1017.3
20260509010039 8 271 4.8 12.9 0.00 0.00 0.00 78 1017.3
20260509004540 9 277 6.4 9.7 0.00 0.00 0.00 77 1017.3
20260509003041 10 283 4.8 11.3 0.00 0.00 0.00 76 1017.5
20260509001531 10 304 6.4 12.9 0.00 0.00 0.00 75 1017.5
20260509000036 10 291 6.4 11.3 0.00 0.00 0.00 75 1017.6
20260508234535 10 289 6.4 11.3 0.00 0.00 0.00 75 1017.5
20260508233025 10 291 6.4 11.3 0.00 0.00 0.00 75 1017.7
20260508231524 10 292 6.4 12.9 0.00 0.00 0.00 75 1017.7
20260508230022 10 296 8.0 12.9 0.00 0.00 0.00 76 1017.7
20260508224519 10 306 6.4 12.9 0.00 0.00 0.00 75 1017.7
20260508223018 10 306 6.4 14.5 0.00 0.00 0.00 75 1017.9
20260508221515 10 308 8.0 14.5 0.00 0.00 0.00 75 1017.6
20260508220011 11 283 8.0 14.5 0.00 0.00 0.00 74 1017.7
20260508214514 11 271 9.7 14.5 0.00 0.00 0.00 73 1017.5
20260508213020 11 273 8.0 12.9 0.00 0.00 0.00 72 1017.6
20260508211510 11 268 4.8 12.9 0.00 0.00 0.00 71 1017.4
20260508210010 11 294 8.0 17.7 0.00 0.00 0.00 70 1017.3
20260508204509 11 289 6.4 12.9 0.00 0.00 0.00 70 1017.4
20260508203006 11 272 4.8 9.7 0.00 0.00 0.00 69 1017.3
20260508201512 12 270 4.8 9.7 0.00 0.00 0.00 68 1017.4
20260508200013 12 267 4.8 9.7 0.00 0.00 0.00 67 1017.2
20260508194506 12 263 6.4 9.7 0.00 0.00 0.00 65 1017.2
20260508193007 13 289 6.4 9.7 0.00 0.00 0.00 64 1017.0
20260508191503 13 271 4.8 8.0 0.00 0.00 0.00 63 1016.8
20260508190006 14 278 3.2 6.4 0.00 0.00 0.00 61 1016.6
20260508184506 15 265 3.2 9.7 0.00 0.00 0.00 60 1016.4
20260508183002 15 268 8.0 16.1 0.00 0.00 0.00 58 1016.3
20260508181501 15 255 3.2 9.7 0.00 0.00 0.00 57 1016.2
20260508180111 16 275 4.8 12.9 0.00 0.00 0.00 56 1016.0
20260508174604 16 246 4.8 14.5 0.00 0.00 0.00 55 1015.8
20260508173059 16 271 8.0 16.1 0.00 0.00 0.00 53 1015.8
20260508171558 17 271 9.7 19.3 0.00 0.00 0.00 51 1015.7
20260508170058 17 276 12.9 19.3 0.00 0.00 0.00 54 1015.5
20260508164558 17 307 11.3 17.7 0.00 0.00 0.00 53 1015.6
20260508163102 17 327 9.7 17.7 0.00 0.00 0.00 53 1015.7
20260508161606 17 267 12.9 19.3 0.00 0.00 0.00 52 1015.6
20260508160057 17 301 4.8 17.7 0.00 0.00 0.00 53 1015.6
20260508154558 17 278 9.7 17.7 0.00 0.00 0.00 52 1015.8
20260508153055 17 296 8.0 19.3 0.00 0.00 0.00 53 1015.9
20260508151557 17 307 11.3 24.1 0.00 0.00 0.00 54 1016.1
20260508150051 17 302 6.4 19.3 0.00 0.00 0.00 55 1016.1
20260508144549 17 302 9.7 17.7 0.00 0.00 0.00 55 1016.1
20260508143050 17 328 16.1 22.5 0.00 0.00 0.00 55 1016.3
20260508141547 17 263 11.3 22.5 0.00 0.00 0.00 53 1016.3
20260508140046 17 323 17.7 25.7 0.00 0.00 0.00 53 1016.4
20260508134544 18 296 12.9 24.1 0.00 0.00 0.00 53 1016.3
20260508133101 18 258 3.2 20.9 0.00 0.00 0.00 51 1016.5
20260508131547 18 256 8.0 17.7 0.00 0.00 0.00 53 1016.6
20260508130044 18 285 8.0 17.7 0.00 0.00 0.00 49 1016.7
20260508124542 18 276 6.4 16.1 0.00 0.00 0.00 52 1016.7
20260508123053 17 271 3.2 17.7 0.00 0.00 0.00 50 1016.7
20260508121550 17 262 9.7 20.9 0.00 0.00 0.00 50 1016.7
20260508120041 17 302 8.0 14.5 0.00 0.00 0.00 53 1016.7
20260508114540 17 337 4.8 17.7 0.00 0.00 0.00 50 1016.8
20260508113041 18 319 11.3 17.7 0.00 0.00 0.00 49 1016.8
20260508111537 18 317 14.5 24.1 0.00 0.00 0.00 49 1017.1
20260508110043 17 329 9.7 19.3 0.00 0.00 0.00 50 1016.9
20260508104534 18 302 9.7 19.3 0.00 0.00 0.00 54 1017.1
20260508103034 18 323 8.0 20.9 0.00 0.00 0.00 51 1017.0
20260508101533 18 268 6.4 22.5 0.00 0.00 0.00 56 1017.1
20260508100031 17 283 9.7 22.5 0.00 0.00 0.00 56 1017.3
20260508094527 17 302 11.3 22.5 0.00 0.00 0.00 57 1017.2
20260508093026 16 322 8.0 20.9 0.00 0.00 0.00 63 1017.3
20260508091527 16 1 9.7 19.3 0.00 0.00 0.00 60 1017.3
20260508090024 16 287 9.7 19.3 0.00 0.00 0.00 59 1017.3
20260508084520 16 274 8.0 17.7 0.00 0.00 0.00 62 1017.5
20260508083016 16 315 11.3 17.7 0.00 0.00 0.00 65 1017.6
20260508081513 15 229 8.0 17.7 0.00 0.00 0.00 67 1017.4
20260508080009 15 314 6.4 16.1 0.00 0.00 0.00 68 1017.4
20260508074504 14 278 4.8 17.7 0.00 0.00 0.00 71 1017.3
20260508073000 13 297 6.4 17.7 0.00 0.00 0.00 72 1017.3
20260508071559 13 312 12.9 19.3 0.00 0.00 0.00 74 1017.2
20260508070101 12 285 11.3 20.9 0.00 0.00 0.00 75 1017.2
20260508064548 12 267 11.3 16.1 0.00 0.00 0.00 80 1017.2
20260508063044 11 271 9.7 16.1 0.00 0.00 0.00 82 1017.1
20260508061542 10 268 8.0 14.5 0.00 0.00 0.00 85 1017.0
20260508060038 9 272 8.0 12.9 0.00 0.00 0.00 88 1017.0
20260508054542 8 274 4.8 12.9 0.00 0.00 0.00 90 1017.0
20260508053036 8 239 3.2 6.4 0.00 0.00 0.00 91 1017.0
20260508051535 7 239 3.2 6.4 0.00 0.00 0.00 90 1016.9
20260508050035 7 239 3.2 6.4 0.00 0.00 0.00 89 1016.9
20260508044534 7 239 1.6 6.4 0.00 0.00 0.00 89 1016.8
20260508043031 7 230 4.8 6.4 0.00 0.00 0.00 88 1016.7
20260508041528 7 229 0.0 4.8 0.00 0.00 0.00 88 1016.7
20260508040027 8 229 0.0 0.0 0.00 0.00 0.00 88 1016.6
20260508034534 8 229 0.0 4.8 0.00 0.00 0.00 89 1016.6
20260508033026 8 229 0.0 0.0 0.00 0.00 0.00 88 1016.5
20260508031522 8 227 0.0 0.0 0.00 0.00 0.00 89 1016.6
20260508030021 8 227 0.0 0.0 0.00 0.00 0.00 89 1016.6
20260508024519 8 227 3.2 6.4 0.00 0.00 0.00 89 1016.6
20260508023018 8 227 3.2 6.4 0.00 0.00 0.00 89 1016.6